Temperature
-1 -1 -1 -1 -1 -1 -1 -1 -1 -1 -1 -1 -0 -1 -1 -1 -1 -1 -1 -1 -1 -1 -1 -1 -1 -1 -1 -1 -1 -1 -1 -1 -1 -1 -1 -0 -0 0 0 0 1 1 1
-1 -2 -2 -2 -2 -2 -2 -2 -2 -1 -1 -1 -1 -1 -1 -1 -1 -1 -2 -2 -2 -2 -2 -2 -2 -2 -2 -2 -2 -2 -2 -1 -1 -1 -1 -1 -1 -1 -0 -0 0 0 0
-2 -2 -2 -2 -2 -2 -2 -2 -2 -2 -2 -2 -2 -2 -2 -2 -2 -2 -2 -3 -3 -2 -2 -2 -2 -2 -2 -2 -2 -2 -2 -2 -2 -2 -2 -1 -1 -1 -1 -1 -1 -1 -0
-3 -3 -3 -3 -3 -3 -3 -3 -3 -3 -3 -3 -3 -3 -3 -3 -3 -3 -3 -3 -3 -3 -3 -3 -3 -3 -3 -3 -3 -3 -3 -3 -3 -3 -2 -2 -2 -2 -2 -2 -2 -1 -1
-4 -4 -4 -4 -4 -4 -4 -4 -4 -4 -4 -3 -3 -3 -3 -4 -4 -4 -4 -4 -4 -4 -4 -4 -4 -4 -4 -4 -4 -4 -4 -4 -4 -4 -3 -3 -3 -3 -3 -3 -3 -2 -2
-4 -4 -4 -4 -4 -4 -4 -5 -4 -4 -4 -4 -4 -4 -4 -4 -5 -5 -5 -5 -5 -5 -5 -5 -5 -5 -5 -5 -5 -4 -4 -4 -4 -4 -4 -4 -3 -3 -3 -3 -3 -3 -3
-5 -5 -5 -5 -5 -5 -5 -5 -5 -5 -5 -5 -5 -5 -5 -5 -5 -6 -6 -6 -6 -6 -6 -6 -6 -5 -5 -5 -5 -5 -5 -5 -4 -4 -4 -4 -4 -3 -4 -4 -4 -4 -3
-6 -6 -6 -6 -6 -6 -6 -6 -6 -6 -6 -6 -6 -6 -6 -6 -6 -6 -6 -6 -7 -7 -6 -6 -6 -6 -6 -6 -6 -6 -5 -5 -5 -5 -5 -4 -4 -4 -4 -4 -4 -4 -4
-7 -7 -7 -7 -6 -7 -7 -7 -7 -7 -7 -7 -7 -7 -7 -7 -7 -7 -7 -7 -7 -7 -7 -7 -7 -7 -7 -7 -7 -6 -6 -6 -6 -6 -5 -5 -5 -5 -5 -5 -5 -5 -5
-7 -7 -7 -7 -7 -7 -7 -7 -8 -8 -8 -8 -8 -8 -8 -8 -8 -8 -8 -8 -8 -8 -8 -8 -8 -8 -7 -7 -7 -7 -7 -6 -6 -6 -6 -6 -6 -5 -5 -5 -5 -6 -6
-8 -8 -8 -8 -8 -8 -8 -8 -8 -9 -9 -9 -9 -9 -9 -9 -8 -8 -9 -9 -8 -8 -8 -8 -8 -8 -8 -8 -8 -7 -7 -7 -7 -7 -6 -6 -6 -6 -6 -6 -6 -6 -6
-9 -9 -9 -9 -9 -9 -9 -9 -9 -9 -10 -10 -10 -10 -9 -9 -9 -9 -9 -9 -9 -9 -9 -9 -9 -9 -9 -8 -8 -8 -8 -8 -7 -7 -7 -7 -7 -7 -6 -6 -6 -6 -6
-9 -10 -10 -10 -10 -10 -10 -10 -10 -10 -10 -11 -11 -10 -10 -10 -10 -10 -10 -10 -10 -10 -10 -10 -10 -9 -9 -9 -9 -9 -8 -8 -8 -8 -8 -7 -7 -7 -7 -7 -7 -7 -7
-10 -10 -11 -11 -11 -11 -11 -11 -11 -11 -11 -11 -11 -11 -11 -11 -11 -11 -10 -10 -10 -10 -10 -10 -10 -10 -10 -9 -9 -9 -9 -9 -9 -9 -8 -8 -8 -8 -7 -7 -7 -7 -7
-11 -11 -11 -12 -12 -12 -12 -12 -12 -12 -12 -12 -12 -12 -12 -12 -12 -12 -11 -11 -11 -11 -11 -11 -11 -11 -10 -10 -10 -10 -10 -9 -9 -9 -9 -9 -9 -8 -8 -8 -8 -8 -8
-12 -12 -12 -12 -12 -12 -12 -12 -12 -13 -13 -13 -13 -13 -13 -13 -13 -12 -12 -12 -12 -12 -12 -11 -11 -11 -11 -11 -11 -11 -10 -10 -10 -10 -10 -10 -9 -9 -9 -9 -9 -9 -9
-13 -13 -13 -13 -13 -13 -13 -13 -13 -13 -13 -13 -13 -13 -13 -13 -13 -13 -13 -13 -12 -12 -12 -12 -12 -12 -12 -12 -12 -12 -11 -11 -11 -11 -11 -10 -10 -10 -10 -9 -9 -9 -9
-13 -13 -14 -14 -14 -14 -14 -14 -14 -14 -14 -13 -13 -14 -14 -14 -14 -13 -13 -13 -13 -13 -13 -13 -13 -13 -13 -13 -12 -12 -12 -12 -12 -11 -11 -11 -11 -11 -10 -10 -10 -10 -10
-14 -14 -14 -14 -14 -14 -15 -15 -15 -15 -14 -14 -14 -14 -14 -14 -14 -14 -14 -14 -14 -14 -14 -14 -14 -13 -13 -13 -13 -13 -13 -13 -12 -12 -12 -12 -11 -11 -11 -11 -11 -10 -10
-14 -15 -15 -15 -15 -15 -15 -15 -15 -15 -15 -15 -15 -15 -15 -15 -15 -14 -14 -14 -14 -14 -14 -14 -14 -14 -14 -14 -14 -14 -13 -13 -13 -13 -13 -12 -12 -12 -12 -11 -11 -11 -11
-15 -15 -15 -15 -15 -15 -16 -16 -16 -16 -16 -16 -16 -15 -16 -16 -15 -15 -15 -15 -15 -15 -15 -14 -14 -14 -14 -14 -14 -14 -14 -14 -14 -13 -13 -13 -13 -12 -12 -12 -12 -12 -12
-15 -16 -16 -16 -16 -16 -16 -16 -16 -16 -16 -16 -16 -16 -16 -16 -16 -16 -15 -15 -15 -15 -15 -15 -15 -15 -15 -15 -15 -14 -14 -14 -14 -14 -14 -14 -13 -13 -13 -13 -13 -12 -12
-16 -16 -16 -16 -16 -17 -17 -17 -17 -17 -17 -17 -16 -16 -16 -16 -16 -16 -16 -16 -16 -16 -16 -16 -15 -15 -15 -15 -15 -15 -15 -15 -15 -15 -14 -14 -14 -14 -14 -14 -13 -13 -13
-17 -17 -17 -17 -17 -17 -17 -17 -17 -17 -17 -17 -17 -17 -17 -17 -17 -16 -16 -16 -16 -16 -16 -16 -16 -16 -16 -16 -16 -16 -15 -15 -15 -15 -15 -15 -15 -14 -14 -14 -14 -14 -14
-17 -17 -17 -17 -17 -17 -17 -17 -17 -17 -17 -17 -18 -17 -17 -17 -17 -17 -17 -17 -17 -17 -16 -16 -16 -16 -16 -16 -16 -16 -16 -15 -15 -15 -15 -15 -15 -15 -15 -15 -15 -14 -14
-18 -18 -18 -18 -18 -18 -18 -18 -18 -18 -18 -18 -18 -18 -18 -18 -17 -17 -17 -17 -17 -17 -17 -17 -17 -16 -16 -16 -16 -16 -16 -16 -16 -16 -16 -15 -15 -15 -15 -15 -15 -15 -15
Wind_Speed
2 1 1 1 1 1 1 1 1 2 2 3 3 3 3 3 3 3 3 4 4 4 3 4 4 3 3 3 3 3 4 3 6 5 3 3 3 4 5 6 7 7 8
2 1 1 1 1 1 1 1 2 2 2 3 3 3 3 3 3 3 4 4 4 5 4 4 5 4 4 4 4 4 4 4 5 7 4 3 4 4 4 5 6 7 7
1 1 1 2 2 2 2 1 2 2 2 2 3 3 3 3 4 4 4 4 5 5 5 5 5 5 5 4 5 5 5 5 4 5 5 4 4 4 4 4 4 5 7
1 1 2 2 2 2 2 2 2 2 2 2 3 3 4 4 4 4 4 5 5 4 5 5 5 6 6 6 6 6 5 5 5 5 5 4 4 4 3 4 4 4 5
2 2 2 2 2 2 2 2 2 2 2 2 3 3 4 4 4 4 5 5 4 4 4 5 5 7 8 7 6 5 5 5 5 5 6 5 5 4 5 4 5 4 4
2 2 2 2 2 2 2 2 2 2 2 2 2 3 4 4 6 7 6 4 4 4 5 5 5 7 9 10 10 10 9 7 7 7 7 7 7 6 4 4 4 4 5
2 2 2 2 2 2 2 2 2 2 2 2 2 3 4 5 7 8 8 4 4 5 5 5 5 6 8 6 9 10 10 12 12 9 8 8 7 7 6 6 6 6 6
1 1 1 2 2 2 2 2 2 2 2 3 3 3 4 5 7 8 7 4 4 5 6 6 6 6 7 7 7 7 7 8 10 8 8 8 7 7 7 7 7 5 4
1 1 2 2 2 2 2 2 2 2 3 3 3 3 4 5 7 7 7 3 4 5 5 6 6 6 10 11 8 7 8 8 10 12 13 12 12 12 10 5 5 5 6
2 2 2 2 2 3 3 3 2 3 3 3 4 3 4 4 7 7 6 3 4 4 4 5 8 8 11 11 7 7 8 7 6 7 8 9 9 10 12 9 7 6 5
2 2 2 2 2 2 2 2 2 2 2 3 4 4 4 5 6 7 6 3 3 3 4 4 5 10 11 11 9 7 10 8 6 6 6 5 5 6 7 8 8 7 6
2 3 3 2 2 2 1 1 2 2 2 3 3 3 3 4 5 6 7 6 5 3 4 4 6 10 11 11 9 9 11 8 4 5 5 5 5 5 6 7 8 9 8
2 2 2 2 2 2 1 1 1 2 2 3 3 3 3 3 4 7 7 7 7 4 4 7 9 10 10 8 9 10 8 5 4 5 6 6 5 5 4 4 5 6 6
1 2 2 2 2 2 2 2 2 2 2 3 3 3 3 4 3 4 3 4 6 6 5 7 9 9 7 7 6 5 4 4 4 5 5 4 4 4 4 4 4 3 3
1 2 2 2 2 2 2 2 3 2 3 3 3 3 3 4 6 8 5 4 4 4 4 3 3 3 3 3 3 3 3 3 4 3 4 4 4 4 4 4 3 3 4
2 2 2 2 2 2 2 3 5 5 7 8 7 6 6 8 9 10 10 8 8 7 4 3 3 3 3 3 4 4 4 3 3 4 4 4 5 5 5 4 4 4 5
2 2 2 2 2 2 3 3 4 5 6 7 8 9 9 9 10 10 10 9 7 5 3 3 3 4 4 4 4 4 4 4 3 3 4 4 4 4 4 4 4 4 5
2 3 3 2 2 2 3 3 3 4 4 4 6 8 9 9 10 9 9 7 4 4 3 3 4 4 3 4 4 4 4 4 4 4 4 4 4 4 4 4 4 5 5
2 2 2 2 2 3 3 3 3 4 4 4 4 5 8 9 9 9 8 4 3 4 3 4 4 3 3 3 4 4 4 4 4 4 4 4 4 4 4 5 5 7 5
2 5 4 2 2 3 3 3 3 4 4 4 4 4 5 6 4 5 4 4 3 4 4 4 4 4 4 3 3 4 4 4 4 4 4 4 4 4 4 4 4 5 5
2 4 6 4 3 3 3 3 3 4 4 4 5 6 8 4 4 4 4 4 4 4 4 4 4 4 4 4 4 4 4 4 4 4 4 4 4 4 4 4 4 4 4
2 3 3 3 3 3 3 3 3 4 4 5 5 6 10 5 4 4 4 4 4 4 4 4 4 4 4 4 4 4 5 5 4 4 4 4 4 4 4 4 3 3 3
2 3 3 3 3 5 5 3 3 4 4 4 5 5 5 5 4 4 5 4 4 4 4 4 4 5 5 5 5 5 5 6 5 5 5 5 4 4 4 4 4 4 4
2 3 4 4 3 3 3 4 4 4 4 4 5 5 5 5 5 5 5 5 4 5 5 5 5 7 8 8 8 8 8 9 8 7 7 6 5 5 5 5 5 5 5
2 3 3 3 4 4 4 4 4 4 4 5 5 5 5 5 5 5 5 5 5 6 6 7 7 7 9 11 11 11 12 12 11 9 8 6 6 6 5 6 5 5 5
3 3 3 3 3 4 4 4 4 5 5 5 5 5 5 5 5 5 5 5 5 6 7 7 9 10 12 12 13 13 14 13 13 12 8 6 6 6 5 5 6 6 6
Wind_Direction
202 205 192 196 195 183 202 229 246 224 198 200 202 208 213 213 216 219 223 220 225 234 233 228 236 238 244 244 235 237 244 245 262 275 272 240 229 239 255 260 262 257 251
203 202 197 199 196 188 208 233 249 249 225 214 213 214 219 219 219 220 227 225 223 228 231 229 237 238 240 244 238 242 246 242 249 264 264 244 243 233 239 250 258 257 256
200 201 204 204 202 209 221 238 245 254 245 232 220 221 225 227 227 229 229 227 227 227 228 229 234 233 239 242 241 246 250 248 241 248 254 249 248 235 242 254 257 256 256
201 211 223 223 218 220 227 235 244 254 251 242 238 233 232 236 236 233 235 231 230 232 234 233 234 233 234 235 238 240 244 241 236 243 246 248 247 236 229 242 262 260 261
204 219 236 239 230 224 227 237 243 256 262 256 254 243 239 238 238 233 232 234 234 240 244 244 244 248 248 244 242 236 235 238 234 239 242 244 242 232 233 234 251 263 263
217 231 245 247 243 231 231 241 247 255 260 255 257 248 241 250 257 256 253 236 236 240 247 251 253 253 253 254 254 251 243 237 232 237 244 236 239 237 238 237 249 259 269
237 246 254 256 259 254 250 248 254 250 250 244 248 252 251 256 261 261 260 251 234 236 241 245 254 256 259 254 254 257 257 255 247 239 243 241 240 234 230 238 239 245 259
247 270 285 280 276 270 251 251 259 259 247 246 246 251 259 271 272 265 263 255 243 242 241 239 244 249 254 256 253 253 255 256 252 249 246 243 239 228 227 235 240 252 268
271 295 303 297 287 279 270 265 258 257 257 255 248 248 255 270 279 277 274 249 249 250 251 250 250 249 255 260 257 253 257 262 261 260 258 255 249 244 239 235 231 240 262
307 304 299 292 276 274 269 266 255 255 259 265 268 261 256 261 277 286 286 256 259 260 256 256 256 259 259 260 257 250 252 257 261 265 262 256 247 242 245 229 221 230 255
325 324 310 298 283 276 269 258 250 262 265 265 275 275 265 266 278 283 289 280 262 263 264 265 265 268 269 265 264 255 259 262 255 254 256 252 241 232 231 227 222 226 237
337 327 320 319 310 303 285 261 246 245 255 263 271 283 282 278 284 283 286 288 285 263 264 271 273 274 275 273 271 269 271 269 254 250 252 253 245 241 237 227 225 227 234
338 330 327 327 320 312 288 262 251 236 245 266 272 284 294 296 286 289 290 293 292 286 274 282 285 282 282 278 278 278 273 262 252 251 252 254 252 242 234 228 227 231 240
338 326 323 324 320 317 307 292 274 256 254 268 276 281 292 294 293 293 288 288 292 291 285 282 284 284 287 290 289 289 284 265 258 255 258 260 259 247 240 235 240 236 246
325 314 314 316 314 314 306 286 278 259 256 260 258 265 277 284 290 297 301 291 289 286 298 289 282 282 283 293 295 294 294 296 281 274 272 273 266 258 252 237 233 235 240
310 308 306 307 309 310 311 311 301 292 290 287 285 285 283 285 293 297 299 299 297 294 295 289 289 287 282 283 284 287 290 289 289 284 271 267 269 262 257 249 238 233 239
291 299 303 307 309 308 307 307 307 310 301 296 294 293 290 291 294 297 301 303 301 300 291 282 277 279 281 285 288 287 288 289 287 282 274 268 269 267 258 250 242 241 243
291 292 297 295 297 298 298 296 296 297 304 307 304 301 302 301 300 299 300 306 301 298 283 274 275 278 280 284 287 290 292 293 292 287 282 274 266 266 258 249 244 241 241
297 295 294 296 295 293 295 297 298 299 297 300 306 309 311 311 310 306 306 296 287 287 289 287 282 282 283 284 287 287 286 287 290 285 279 277 273 267 260 253 247 249 246
291 296 302 298 294 296 295 294 296 296 298 299 302 307 312 312 312 312 310 300 285 282 283 284 289 287 281 280 281 282 282 284 287 285 282 279 277 270 263 260 252 245 243
292 297 303 305 297 294 292 292 293 294 295 298 297 297 303 304 299 298 299 296 290 289 289 287 284 285 282 279 278 279 279 280 281 281 279 278 279 276 268 261 255 250 250
291 292 296 295 295 293 291 287 289 292 294 296 300 303 306 310 301 294 292 291 288 285 284 286 287 283 279 277 275 275 275 275 277 277 276 274 274 276 276 268 262 256 249
285 288 291 291 290 292 301 300 294 292 294 297 299 301 304 303 297 292 289 290 288 286 287 280 279 284 286 283 275 266 265 266 266 263 261 261 261 263 266 264 255 250 250
273 278 284 289 289 287 290 294 294 294 293 294 296 297 297 296 296 295 293 291 287 284 281 276 272 275 281 284 282 276 271 268 263 255 250 249 251 257 256 255 253 249 244
278 280 282 282 285 287 288 290 290 292 295 295 295 297 298 297 296 295 293 290 287 284 283 282 280 278 279 280 279 279 281 279 272 260 243 242 246 248 250 250 248 249 246
278 279 282 284 283 284 287 291 292 292 292 293 293 292 293 293 293 293 292 291 290 288 285 284 281 281 282 282 283 285 285 278 274 273 256 240 238 245 245 245 245 242 244
Height
1466 1466 1467 1468 1469 1469 1470 1471 1472 1473 1474 1475 1476 1477 1478 1479 1480 1481 1483 1484 1485 1486 1488 1489 1490 1491 1492 1493 1494 1495 1496 1496 1495 1494 1496 1497 1498 1499 1500 1501 1502 1502 1503
1462 1463 1464 1465 1465 1465 1466 1467 1468 1468 1469 1470 1471 1472 1473 1474 1475 1476 1477 1478 1479 1480 1482 1483 1484 1485 1486 1488 1488 1489 1490 1491 1491 1489 1489 1491 1492 1493 1494 1494 1495 1496 1497
1458 1459 1460 1461 1461 1462 1462 1463 1463 1464 1465 1466 1467 1467 1468 1469 1470 1470 1472 1473 1474 1475 1476 1477 1478 1479 1480 1481 1482 1483 1484 1485 1485 1485 1484 1485 1486 1487 1487 1488 1489 1490 1491
1454 1455 1455 1456 1457 1457 1458 1459 1459 1459 1460 1461 1462 1463 1463 1464 1465 1465 1466 1467 1468 1469 1470 1471 1472 1473 1474 1475 1475 1477 1478 1478 1479 1479 1478 1479 1480 1481 1482 1482 1482 1483 1484
1450 1450 1451 1452 1453 1453 1454 1454 1455 1455 1455 1456 1457 1458 1458 1459 1460 1460 1461 1462 1463 1463 1464 1465 1466 1467 1468 1469 1469 1470 1471 1472 1472 1473 1473 1473 1473 1474 1475 1476 1476 1476 1477
1446 1446 1447 1447 1448 1449 1449 1450 1450 1450 1451 1452 1452 1453 1453 1454 1455 1456 1456 1456 1457 1457 1458 1459 1459 1460 1461 1463 1463 1464 1465 1466 1466 1466 1466 1466 1466 1468 1469 1470 1470 1470 1469
1442 1442 1443 1443 1444 1444 1444 1445 1445 1446 1446 1447 1447 1448 1448 1449 1449 1450 1451 1451 1451 1451 1452 1452 1453 1454 1455 1456 1456 1457 1458 1459 1460 1461 1460 1460 1460 1461 1463 1463 1464 1464 1464
1438 1438 1439 1439 1439 1439 1440 1440 1440 1441 1441 1442 1442 1442 1443 1443 1444 1444 1445 1445 1445 1445 1445 1446 1447 1447 1448 1449 1450 1450 1450 1451 1452 1454 1454 1454 1455 1455 1457 1457 1457 1458 1458
1434 1434 1434 1435 1434 1435 1435 1435 1435 1436 1436 1437 1437 1438 1437 1438 1439 1439 1439 1439 1438 1438 1439 1440 1441 1441 1442 1444 1444 1443 1443 1444 1445 1447 1447 1448 1448 1449 1450 1451 1451 1451 1451
1430 1430 1431 1431 1431 1430 1430 1431 1431 1431 1432 1432 1432 1433 1433 1433 1433 1434 1434 1434 1433 1433 1433 1434 1435 1436 1436 1437 1438 1437 1436 1437 1438 1439 1439 1440 1441 1441 1443 1443 1444 1445 1444
1427 1427 1427 1427 1427 1426 1426 1426 1427 1427 1427 1428 1428 1428 1428 1428 1428 1429 1429 1429 1428 1428 1428 1428 1429 1430 1430 1431 1432 1431 1431 1432 1432 1432 1432 1433 1434 1434 1435 1436 1437 1438 1438
1424 1424 1424 1423 1423 1423 1422 1422 1423 1423 1423 1423 1423 1423 1424 1424 1424 1424 1424 1425 1424 1424 1423 1423 1423 1424 1424 1425 1425 1425 1426 1426 1426 1426 1426 1426 1426 1427 1427 1429 1430 1431 1431
1422 1421 1420 1420 1420 1419 1419 1419 1419 1419 1419 1419 1419 1419 1419 1419 1419 1420 1420 1420 1420 1419 1419 1418 1418 1418 1418 1418 1419 1419 1420 1420 1420 1420 1419 1419 1420 1420 1421 1422 1422 1423 1424
1419 1418 1418 1417 1417 1416 1416 1416 1416 1416 1415 1416 1415 1415 1415 1415 1415 1415 1415 1415 1415 1414 1414 1413 1414 1413 1413 1413 1413 1413 1413 1414 1414 1414 1413 1413 1414 1414 1414 1415 1416 1416 1417
1417 1416 1416 1415 1414 1414 1413 1413 1413 1413 1413 1413 1413 1412 1411 1411 1411 1412 1411 1410 1410 1409 1409 1409 1408 1408 1407 1407 1407 1407 1407 1407 1407 1407 1407 1407 1407 1407 1408 1408 1409 1410 1410
1414 1414 1413 1412 1412 1411 1410 1410 1410 1410 1410 1410 1410 1409 1408 1409 1408 1408 1407 1406 1406 1405 1405 1403 1403 1402 1402 1402 1402 1401 1401 1401 1401 1401 1401 1401 1401 1401 1401 1402 1403 1403 1404
1412 1412 1411 1410 1410 1409 1408 1407 1406 1407 1407 1406 1406 1405 1405 1404 1404 1403 1403 1402 1402 1401 1400 1398 1398 1398 1397 1397 1397 1396 1396 1396 1396 1395 1395 1395 1396 1395 1395 1395 1396 1397 1398
1410 1409 1409 1408 1407 1406 1406 1405 1404 1403 1402 1401 1402 1401 1401 1400 1400 1399 1399 1398 1396 1396 1395 1394 1394 1393 1392 1392 1392 1391 1391 1390 1390 1389 1389 1389 1389 1389 1389 1389 1390 1391 1392
1408 1407 1406 1405 1405 1404 1403 1402 1402 1400 1399 1398 1398 1397 1397 1396 1395 1395 1394 1393 1392 1391 1390 1390 1389 1389 1388 1387 1387 1386 1386 1385 1384 1384 1383 1383 1383 1383 1383 1383 1384 1385 1386
1405 1405 1404 1403 1402 1401 1401 1400 1399 1398 1397 1396 1394 1393 1393 1392 1390 1390 1389 1389 1388 1387 1386 1386 1385 1384 1384 1383 1382 1381 1380 1380 1379 1378 1378 1377 1377 1377 1377 1377 1378 1378 1379
1402 1402 1402 1401 1400 1399 1398 1397 1396 1395 1394 1393 1392 1391 1391 1389 1388 1387 1386 1385 1384 1383 1382 1381 1380 1380 1379 1378 1377 1376 1375 1374 1373 1373 1372 1372 1371 1371 1371 1372 1372 1373 1374
1400 1399 1399 1398 1397 1396 1395 1394 1394 1392 1391 1390 1389 1388 1387 1386 1384 1383 1382 1381 1379 1378 1378 1377 1376 1375 1374 1373 1372 1371 1370 1369 1368 1368 1367 1367 1366 1366 1366 1366 1367 1367 1368
1397 1397 1396 1395 1394 1394 1393 1392 1391 1389 1388 1387 1386 1384 1383 1381 1380 1379 1378 1376 1375 1374 1373 1372 1371 1370 1369 1368 1367 1366 1365 1364 1363 1363 1362 1362 1361 1361 1361 1361 1361 1362 1362
1395 1394 1393 1392 1391 1390 1389 1388 1387 1386 1385 1383 1382 1381 1379 1378 1376 1375 1373 1372 1371 1369 1368 1367 1366 1365 1364 1363 1361 1360 1360 1359 1358 1357 1357 1356 1356 1356 1356 1356 1356 1356 1357
1392 1391 1390 1389 1388 1387 1386 1385 1384 1383 1381 1380 1378 1377 1375 1374 1372 1370 1369 1367 1366 1365 1363 1362 1361 1359 1358 1357 1356 1355 1353 1353 1352 1352 1352 1351 1351 1351 1351 1351 1351 1351 1351
1388 1388 1387 1386 1385 1384 1382 1381 1380 1379 1377 1376 1374 1373 1371 1369 1368 1366 1365 1363 1361 1360 1358 1357 1355 1354 1353 1351 1350 1348 1347 1346 1346 1347 1347 1346 1346 1346 1346 1346 1346 1346 1346